Location: Hurstbourne Priors
(51.2000°N, 1.3667°W)
Time: 21:46:22
(UTC+00:00)

Altair - Pass Details

Date: 18 April 2021
Orbit: 1501 x 1683 km, 47.2° (Epoch: 13 May)

Event Time Altitude Azimuth Distance (km) Brightness Sun altitude
Rises 05:47:17 0° 213° (SSW) 4,872 9.7 5.8°
Reaches altitude 10° 05:50:46 10° 205° (SSW) 3,865 9.3 6.3°
Maximum altitude 05:59:24 37° 143° (SE) 2,315 8.9 7.6°
Drops below altitude 10° 06:07:46 10° 81° (E) 3,747 13.4 8.9°
Sets 06:11:04 0° 74° (ENE) 4,709 12.1 9.5°
